Location: Bathurst
(33.4193°S, 149.5775°E)
Time: 11:49:34
(UTC+10:00)

Explorer 7 - Pass Details

Date: 16 June 2021
Orbit: 484 x 676 km, 50.3° (Epoch: 02 August)

Event Time Altitude Azimuth Distance (km) Brightness Sun altitude
Rises 18:46:26 0° 255° (WSW) 2,850 11.5 -21.4°
Reaches altitude 10° 18:50:37 10° 293° (WNW) 1,993 10.8 -22.2°
Maximum altitude 18:51:38 11° 306° (NW) 1,959 10.6 -22.4°
Drops below altitude 10° 18:52:40 10° 319° (NW) 2,012 10.4 -22.6°
Sets 18:57:00 0° 356° (N) 2,956 10.8 -23.5°
